OH2HCY Weather Reports


time (UTC)temp
F
wind
direction
speed
knots
gust
knots
rain 1hr
in
rain 24hr
in
rain mn
in
humidity
%
barometer
mb
20260507065240 51 210 0.9 3.5 0.00 0.00 0.00 33 1012.4
20260507051510 45 104 0.9 3.5 0.00 0.00 0.00 41 1014.0
20260507042058 39 359 0.9 1.7 0.00 0.00 0.00 49 1015.2
20260507035432 36 352 1.7 3.5 0.00 0.00 0.00 53 1015.5
20260507034500 36 358 1.7 3.5 0.00 0.00 0.00 53 1015.5
20260507033605 35 352 1.7 3.5 0.00 0.00 0.00 54 1015.6
20260507032649 35 350 1.7 2.6 0.00 0.00 0.00 54 1015.6
20260507031738 35 354 1.7 2.6 0.00 0.00 0.00 54 1015.5
20260507030850 35 358 1.7 2.6 0.00 0.00 0.00 53 1015.5
20260507025940 34 351 1.7 2.6 0.00 0.00 0.00 54 1015.5
20260507021504 35 359 1.7 3.5 0.00 0.00 0.00 54 1015.5
20260507020600 34 352 1.7 3.5 0.00 0.00 0.00 57 1015.5
20260507015624 35 351 1.7 2.6 0.00 0.00 0.00 55 1015.4
20260507012934 36 359 0.9 2.6 0.00 0.00 0.00 52 1015.2
20260507012050 36 357 1.7 3.5 0.00 0.00 0.00 51 1015.2
20260507011215 36 356 1.7 3.5 0.00 0.00 0.00 52 1015.2
20260507010320 36 355 1.7 3.5 0.00 0.00 0.00 50 1015.1
20260507005440 36 355 0.9 3.5 0.00 0.00 0.00 51 1015.1
20260507003629 37 358 1.7 4.3 0.00 0.00 0.00 49 1015.0
20260507001844 37 359 1.7 4.3 0.00 0.00 0.00 49 1014.9
20260507000930 37 357 1.7 4.3 0.00 0.00 0.00 49 1014.8
20260506235205 38 356 2.6 5.2 0.00 0.00 0.00 50 1014.8
20260506234305 38 355 1.7 5.2 0.00 0.00 0.00 49 1014.7
20260506233420 38 358 1.7 4.3 0.00 0.00 0.00 49 1014.6
20260506232525 38 355 2.6 4.3 0.00 0.00 0.00 49 1014.5
20260506231609 39 357 2.6 5.2 0.00 0.00 0.00 49 1014.4
20260506230712 39 354 2.6 5.2 0.00 0.00 0.00 48 1014.5
20260506225835 39 355 2.6 5.2 0.00 0.00 0.00 48 1014.4
20260506224935 39 355 2.6 5.2 0.00 0.00 0.00 47 1014.4
20260506224035 40 354 2.6 4.3 0.00 0.00 0.00 48 1014.3
20260506223150 40 355 2.6 5.2 0.00 0.00 0.00 48 1014.3
20260506222310 40 356 2.6 4.3 0.00 0.00 0.00 47 1014.3
20260506221415 40 358 2.6 5.2 0.00 0.00 0.00 48 1014.3
20260506220527 40 353 2.6 5.2 0.00 0.00 0.00 51 1014.2
20260506215615 40 351 3.5 4.3 0.00 0.00 0.00 53 1014.1
20260506214715 40 356 2.6 3.5 0.00 0.00 0.00 52 1014.1
20260506213740 39 344 2.6 3.5 0.00 0.00 0.00 59 1014.1
20260506212832 39 344 1.7 3.5 0.00 0.00 0.00 59 1014.0
20260506211935 40 353 1.7 3.5 0.00 0.00 0.00 61 1014.0
20260506211105 40 348 1.7 3.5 0.00 0.00 0.00 63 1013.9
20260506210219 40 342 1.7 2.6 0.00 0.00 0.00 63 1013.8
20260506205345 41 353 0.9 1.7 0.00 0.00 0.00 62 1013.7
20260506204529 40 355 0.0 1.7 0.00 0.00 0.00 63 1013.7
20260506203605 40 289 0.0 0.9 0.00 0.00 0.00 62 1013.7
20260506202716 41 157 0.0 0.0 0.00 0.00 0.00 60 1013.5
20260506201800 42 240 0.0 0.9 0.00 0.00 0.00 58 1013.4
20260506200845 42 235 0.0 0.9 0.00 0.00 0.00 57 1013.3
20260506200015 42 250 0.0 0.9 0.00 0.00 0.00 56 1013.2
20260506195119 43 285 0.0 0.9 0.00 0.00 0.00 55 1013.0
20260506194220 44 214 0.0 0.9 0.00 0.00 0.00 53 1012.7
20260506193320 44 147 0.0 1.7 0.00 0.00 0.00 51 1012.6
20260506192400 45 267 0.9 1.7 0.00 0.00 0.00 49 1012.3
20260506191440 46 251 0.9 2.6 0.00 0.00 0.00 47 1012.2
20260506190550 46 250 1.7 2.6 0.00 0.00 0.00 46 1012.2
20260506185716 46 245 1.7 3.5 0.00 0.00 0.00 46 1012.1
20260506184755 47 230 2.6 4.3 0.00 0.00 0.00 45 1012.0
20260506183850 47 235 1.7 3.5 0.00 0.00 0.00 44 1011.8
20260506182944 48 237 1.7 2.6 0.00 0.00 0.00 44 1011.8
20260506182105 48 249 1.7 2.6 0.00 0.00 0.00 42 1011.7
20260506181205 49 238 1.7 3.5 0.00 0.00 0.00 43 1011.6
20260506180250 49 214 1.7 4.3 0.00 0.00 0.00 43 1011.6
20260506175350 49 196 1.7 3.5 0.00 0.00 0.00 43 1011.5
20260506174442 49 190 2.6 5.2 0.00 0.00 0.00 43 1011.4
20260506173535 49 197 2.6 6.1 0.00 0.00 0.00 42 1011.2
20260506172655 50 205 3.5 9.6 0.00 0.00 0.00 40 1011.1
20260506171805 50 197 3.5 7.8 0.00 0.00 0.00 40 1011.0
20260506170904 50 213 3.5 7.0 0.00 0.00 0.00 39 1010.8
20260506170025 50 216 4.3 8.7 0.00 0.00 0.00 38 1010.8
20260506165043 50 205 4.3 8.7 0.00 0.00 0.00 37 1010.8
20260506164116 50 215 3.5 7.8 0.00 0.00 0.00 39 1010.7
20260506163140 50 218 4.3 9.6 0.00 0.00 0.00 39 1010.8
20260506162233 50 215 5.2 10.4 0.00 0.00 0.00 38 1010.8
20260506161335 50 221 5.2 10.4 0.00 0.00 0.00 38 1010.7
20260506160520 50 221 4.3 8.7 0.00 0.00 0.00 39 1010.7
20260506155552 50 211 5.2 11.3 0.00 0.00 0.00 40 1010.7
20260506154750 50 215 6.1 11.3 0.00 0.00 0.00 39 1010.8
20260506153814 50 212 5.2 11.3 0.00 0.00 0.00 40 1010.7
20260506152850 50 196 5.2 11.3 0.00 0.00 0.00 40 1010.6
20260506151900 51 214 3.5 10.4 0.00 0.00 0.00 38 1010.3
20260506151005 51 220 5.2 13.0 0.00 0.00 0.00 36 1010.2
20260506150055 52 224 4.3 10.4 0.00 0.00 0.00 34 1010.2
20260506145215 51 240 5.2 12.2 0.00 0.00 0.00 33 1010.4
20260506144335 52 239 5.2 13.0 0.00 0.00 0.00 33 1010.3
20260506143500 52 250 5.2 13.0 0.00 0.00 0.00 32 1010.1
20260506142605 52 227 5.2 13.0 0.00 0.00 0.00 31 1010.1
20260506141654 53 230 3.5 8.7 0.00 0.00 0.00 32 1010.0
20260506140750 51 235 6.1 10.4 0.00 0.00 0.00 32 1010.1
20260506135820 53 253 4.3 12.2 0.00 0.00 0.00 30 1009.8
20260506134915 52 228 5.2 10.4 0.00 0.00 0.00 32 1010.0
20260506133948 52 195 4.3 11.3 0.00 0.00 0.00 37 1009.9
20260506133030 51 180 5.2 11.3 0.00 0.00 0.00 40 1010.1
20260506132140 51 186 4.3 12.2 0.00 0.00 0.00 41 1010.2
20260506131225 50 212 6.1 12.2 0.00 0.00 0.00 42 1010.3
20260506130357 52 240 4.3 9.6 0.00 0.00 0.00 36 1010.1
20260506125455 51 244 5.2 12.2 0.00 0.00 0.00 25 1010.3
20260506124535 51 272 4.3 9.6 0.00 0.00 0.00 25 1010.2
20260506123640 51 289 6.1 14.8 0.00 0.00 0.00 27 1010.1
20260506122740 51 330 5.2 11.3 0.00 0.00 0.00 27 1010.1
20260506121855 52 301 3.5 12.2 0.00 0.00 0.00 26 1009.9
20260506121004 51 320 3.5 9.6 0.00 0.00 0.00 25 1009.9
20260506120110 52 294 4.3 10.4 0.00 0.00 0.00 24 1009.7
20260506115145 53 292 6.1 14.8 0.00 0.00 0.00 24 1009.8
20260506114327 52 290 5.2 14.8 0.00 0.00 0.00 25 1009.7
20260506113405 52 259 4.3 11.3 0.00 0.00 0.00 25 1009.7
20260506112510 53 249 5.2 13.0 0.00 0.00 0.00 25 1009.7
20260506111610 51 229 5.2 10.4 0.00 0.00 0.00 26 1010.0
20260506110645 51 279 4.3 10.4 0.00 0.00 0.00 26 1010.1
20260506105743 50 282 6.1 14.8 0.00 0.00 0.00 26 1010.2
20260506104840 51 298 4.3 13.0 0.00 0.00 0.00 26 1009.8
20260506103944 51 283 3.5 12.2 0.00 0.00 0.00 27 1009.9
20260506103040 51 247 5.2 18.2 0.00 0.00 0.00 28 1010.1
20260506102200 50 230 3.5 9.6 0.00 0.00 0.00 28 1010.2
20260506101336 50 264 4.3 9.6 0.00 0.00 0.00 29 1010.4
20260506100415 50 268 4.3 12.2 0.00 0.00 0.00 29 1010.2
20260506095509 50 321 3.5 8.7 0.00 0.00 0.00 28 1010.3
20260506094610 48 312 6.1 13.0 0.00 0.00 0.00 29 1010.3
20260506093805 50 256 3.5 12.2 0.00 0.00 0.00 30 1009.9
20260506092835 51 252 3.5 12.2 0.00 0.00 0.00 30 1009.7
20260506091920 48 244 4.3 10.4 0.00 0.00 0.00 31 1010.5
20260506091028 48 292 4.3 12.2 0.00 0.00 0.00 32 1010.7
20260506090055 48 308 5.2 12.2 0.00 0.00 0.00 34 1010.5
20260506085155 48 282 4.3 12.2 0.00 0.00 0.00 34 1010.6
20260506084240 47 298 3.5 13.0 0.00 0.00 0.00 36 1010.4
20260506083420 47 290 3.5 8.7 0.00 0.00 0.00 37 1010.7
20260506082550 47 263 6.1 14.8 0.00 0.00 0.00 38 1010.6
20260506081632 48 305 4.3 12.2 0.00 0.00 0.00 37 1010.4
20260506080720 47 288 4.3 12.2 0.00 0.00 0.00 38 1010.7
20260506073112 46 271 5.2 11.3 0.00 0.00 0.00 42 1010.4
20260506072235 46 288 3.5 9.6 0.00 0.00 0.00 44 1010.3
20260506071322 46 272 4.3 13.9 0.00 0.00 0.00 45 1010.4
20260506070420 46 281 6.1 13.9 0.00 0.00 0.00 45 1010.4